Probability
0 0 0 0 0 0 0 0 0 0 0 0 0 0 0 1 3 5 4 2 2 3 5 6 6 6 6 5 4 5 6 5 5 6 7 8 9 9 9 8 7 7 6 3
0 0 0 0 0 0 0 0 0 0 0 0 0 0 0 1 3 5 4 2 2 3 4 5 6 6 6 5 4 4 5 5 5 6 7 7 8 8 7 7 7 6 5 4
0 0 0 0 0 0 0 0 0 0 0 0 0 0 0 0 2 4 4 3 2 3 3 4 4 5 5 5 4 3 4 4 5 6 7 6 5 5 4 4 5 5 5 5
0 0 0 0 0 0 0 0 0 0 0 0 0 0 0 0 2 4 4 3 3 3 3 3 3 4 3 3 3 3 3 4 5 6 6 5 4 4 4 4 4 5 6 7
0 0 0 0 0 0 0 0 0 0 0 0 0 0 0 0 2 3 3 3 3 2 1 2 3 3 2 2 2 3 4 5 6 6 5 4 4 4 5 6 6 7 7 8
0 0 0 0 0 0 0 0 0 0 0 0 0 0 0 0 1 1 2 3 2 1 0 1 1 2 1 0 1 3 4 5 6 6 6 5 5 4 5 6 7 8 9 9
0 0 0 0 0 0 0 0 0 0 0 0 0 0 0 0 0 0 1 3 3 1 0 0 0 0 0 1 1 3 3 4 4 5 6 6 6 5 5 5 5 7 8 9
0 0 0 0 0 0 0 0 0 0 0 0 0 0 0 0 0 0 1 2 3 2 0 0 0 1 1 2 3 3 3 3 3 4 5 6 6 6 6 5 5 6 7 9
0 0 0 0 0 0 0 0 0 0 0 0 0 0 0 0 0 0 1 2 2 1 0 0 1 2 3 3 3 3 3 3 3 3 4 5 6 6 6 6 6 6 7 7
0 0 0 0 0 0 0 0 0 0 0 0 0 0 0 0 0 0 1 2 1 0 0 0 1 2 3 3 3 3 3 3 3 3 3 4 5 5 6 6 5 5 6 5
0 0 0 0 0 0 0 0 0 0 0 0 0 0 0 0 0 0 1 1 1 0 0 0 1 1 1 2 3 3 3 2 2 2 1 1 2 3 3 3 3 3 4 4
0 0 0 0 0 0 0 0 0 0 0 0 0 0 0 0 0 0 0 0 0 0 0 0 0 0 0 1 1 2 1 1 0 0 0 0 1 1 1 1 1 1 2 2
0 0 0 0 0 0 0 0 0 0 0 0 0 0 0 0 0 0 0 0 0 0 0 0 0 0 0 0 0 0 0 0 0 0 1 1 1 0 0 0 0 0 0 1
0 0 0 0 0 0 0 0 0 0 0 0 0 0 0 0 0 0 0 0 0 0 0 0 0 0 0 0 0 0 0 0 0 1 2 2 1 0 0 0 0 0 0 0
0 0 0 0 0 0 0 0 0 0 0 0 0 0 0 0 0 0 0 0 0 0 0 0 0 0 0 0 0 0 0 0 0 1 2 2 1 0 0 0 0 0 0 0
0 0 0 0 0 0 0 0 0 0 0 0 0 0 0 0 0 0 0 0 0 0 0 0 0 0 0 0 0 0 0 0 0 0 1 1 0 0 0 0 0 0 0 0
0 0 0 0 0 0 0 0 0 0 0 0 0 0 0 0 0 0 0 0 0 0 0 0 0 0 0 0 0 0 0 0 0 0 0 0 0 0 0 0 0 0 0 0
0 0 0 0 0 0 0 0 0 0 0 0 0 0 0 0 0 0 0 0 0 0 0 0 0 0 0 0 0 0 0 0 0 0 0 0 0 0 0 0 0 0 0 0
0 0 0 0 0 0 0 0 0 0 0 0 0 0 0 0 0 0 0 0 0 0 0 0 0 0 0 0 0 0 0 0 0 0 0 0 0 0 0 0 0 0 0 0
0 0 0 0 0 0 0 0 0 0 0 0 0 0 0 0 0 0 0 0 0 0 0 0 0 0 0 0 0 0 0 0 0 0 0 0 0 0 0 0 0 0 0 0
0 0 0 0 0 0 0 0 0 0 0 0 0 0 0 0 0 0 0 0 0 0 0 0 0 0 0 0 0 0 0 0 0 0 0 0 0 0 0 0 0 0 0 0
0 0 0 0 0 0 0 0 0 0 0 0 0 0 0 0 0 0 0 0 0 0 0 0 0 0 0 0 0 0 0 0 0 0 0 0 0 0 0 0 0 0 0 0
0 0 0 0 0 0 0 0 0 0 0 0 0 0 0 0 0 0 0 0 0 0 0 0 0 0 0 0 0 0 0 0 0 0 0 0 0 0 0 0 0 0 0 0
0 0 0 0 0 0 0 0 0 0 0 0 0 0 0 0 0 0 0 0 0 0 0 0 0 0 0 0 0 0 0 0 0 0 0 0 0 0 0 0 0 0 0 0
0 0 0 0 0 0 0 0 0 0 0 0 0 0 0 0 0 0 0 0 0 0 0 0 0 0 0 0 0 0 0 0 0 0 0 0 0 0 0 0 0 0 0 0
0 0 0 0 0 0 0 0 0 0 0 0 0 0 0 0 0 0 0 0 0 0 0 0 0 0 0 0 0 0 0 0 0 0 0 0 0 0 0 0 0 0 0 0
0 0 0 0 0 0 0 0 0 0 0 0 0 0 0 0 0 0 0 0 0 0 0 0 0 0 0 0 0 0 0 0 0 0 0 0 0 0 0 0 0 0 0 0
Wind_Speed
8 8 7 6 7 7 7 7 7 6 4 4 3 3 3 2 2 2 2 2 2 2 1 1 2 2 2 1 1 1 2 2 2 2 2 2 2 2 1 1 2 1 1 1
10 8 7 8 7 7 7 6 7 6 4 3 3 4 3 3 2 2 2 2 2 1 1 1 0 1 1 1 2 1 1 2 2 2 3 3 2 2 2 1 1 1 2 2
8 7 8 7 4 3 3 3 4 5 4 3 3 3 3 3 2 3 2 2 2 2 1 0 1 1 1 1 1 2 2 1 2 3 3 3 3 2 2 2 2 1 2 2
7 7 8 1 2 2 2 2 3 3 3 3 4 3 2 3 3 3 2 2 2 2 1 1 1 1 1 2 2 2 2 2 2 2 2 3 3 3 3 2 2 1 2 2
6 7 6 2 1 2 3 2 3 3 2 3 4 3 3 4 4 3 2 2 1 2 2 2 1 1 2 2 2 2 2 2 2 2 2 3 3 3 3 2 2 2 2 2
5 6 6 1 2 3 3 2 3 3 2 2 3 3 2 3 3 3 2 1 1 2 2 2 1 1 1 2 2 2 2 2 2 2 3 3 3 3 2 2 2 2 2 2
7 7 3 2 2 1 1 1 3 3 2 3 3 3 3 4 3 3 2 1 1 1 2 2 2 1 1 1 1 1 1 1 2 2 2 3 2 2 2 2 2 2 2 2
5 6 3 3 1 1 2 3 4 4 4 3 4 4 3 3 3 3 3 1 1 1 2 2 2 2 1 1 1 1 1 1 2 2 2 2 2 2 2 2 2 2 2 1
2 1 2 2 2 2 2 2 3 3 3 3 3 3 3 3 3 3 3 1 1 1 1 2 2 2 2 2 1 0 1 1 2 2 2 1 2 2 2 2 2 2 2 2
3 2 1 1 2 3 3 3 3 3 3 3 3 3 3 3 3 3 2 1 1 1 1 1 2 2 2 2 1 1 1 1 2 1 1 1 1 1 2 2 2 2 2 2
5 3 1 1 2 2 2 3 3 3 3 3 3 3 3 3 3 3 3 2 1 1 1 1 1 2 2 2 1 1 1 1 1 1 1 1 1 1 1 2 3 3 3 2
4 2 3 2 2 2 3 2 2 3 4 3 3 3 3 3 3 3 2 2 1 1 2 2 2 2 2 2 2 1 1 1 1 1 1 1 1 0 0 1 2 3 3 3
3 3 2 2 2 2 2 2 2 2 3 3 3 3 3 3 3 3 2 2 2 2 2 2 1 2 2 2 2 2 2 1 1 2 2 2 2 2 1 1 0 1 1 2
2 2 3 3 3 3 2 2 3 3 3 3 2 2 3 3 3 3 3 2 1 1 1 1 1 1 1 2 2 2 2 2 1 2 2 2 2 2 2 2 2 1 2 3
3 3 3 3 2 2 2 2 2 2 2 2 2 2 3 3 3 3 3 2 1 1 1 1 1 1 1 1 2 2 2 1 1 1 1 2 2 2 2 3 2 2 1 1
3 2 2 3 3 2 2 3 3 3 3 3 3 3 3 3 3 3 2 1 1 1 1 1 1 1 1 1 1 1 2 3 2 1 1 2 2 2 2 2 2 2 2 2
3 3 3 3 3 2 3 3 3 3 3 3 3 3 3 3 2 2 2 1 1 1 1 1 1 1 1 1 1 1 1 2 3 2 1 1 1 1 2 2 2 2 2 3
2 3 3 2 2 2 3 3 3 3 3 3 3 3 3 3 2 2 2 2 2 2 2 1 1 1 1 1 1 1 1 1 1 2 1 1 1 1 1 1 2 2 1 2
1 1 1 2 2 2 2 2 3 3 3 3 3 3 3 3 3 2 2 2 2 2 2 1 1 1 1 1 1 0 1 2 2 1 1 1 1 1 1 1 1 1 1 1
1 1 1 2 2 2 2 2 3 3 3 3 3 4 4 3 3 3 3 2 2 2 2 1 1 1 1 1 0 1 1 1 1 1 1 1 1 1 1 1 1 1 1 1
1 1 1 1 2 2 2 2 2 3 2 2 3 4 4 4 3 3 2 2 2 1 1 2 1 1 1 1 1 1 1 1 1 1 1 1 1 1 1 1 0 0 1 1
1 1 1 1 1 2 2 2 2 2 2 3 3 4 4 4 3 3 2 2 1 1 1 1 1 2 2 1 1 1 2 1 1 1 1 1 1 1 1 1 1 1 1 1
2 2 2 1 2 2 2 2 2 2 2 3 3 4 3 3 2 2 2 2 1 1 1 1 2 3 2 1 1 2 2 2 1 1 1 1 1 1 1 1 1 1 1 1
1 2 2 1 1 2 2 2 2 2 2 2 3 3 3 2 2 2 1 1 2 1 1 2 3 3 2 1 1 1 2 2 2 2 1 1 1 1 1 1 1 1 1 2
2 2 2 2 2 1 2 2 2 2 2 2 2 2 2 1 2 2 1 1 1 1 2 2 3 3 2 1 1 1 1 1 1 1 1 1 1 1 1 1 1 1 2 2
2 1 1 2 1 1 1 1 1 1 1 2 2 2 2 1 1 1 1 1 1 2 2 1 1 1 1 1 1 1 1 1 2 2 1 1 1 1 1 1 2 1 2 2
2 1 1 1 1 1 1 1 1 1 1 2 2 2 2 1 1 1 1 1 1 1 1 1 1 1 1 1 1 1 1 1 1 1 1 1 1 1 1 2 1 1 1 1
Wind_Direction
281 291 289 286 282 279 273 280 285 299 315 335 357 31 42 47 70 81 100 106 110 113 110 144 164 172 179 176 164 168 173 168 165 158 143 145 154 173 181 184 200 204 179 173
275 271 276 276 272 267 268 277 284 292 300 332 21 31 27 18 34 64 57 42 32 82 99 93 103 197 192 189 177 169 171 178 165 160 154 160 168 169 172 189 208 212 204 184
277 274 277 271 287 263 260 281 288 294 306 348 360 11 2 356 22 51 40 31 10 1 25 258 252 261 241 233 189 183 184 177 179 165 156 165 177 176 181 193 199 227 221 174
274 272 262 245 13 314 268 312 315 308 333 340 349 352 360 2 29 39 31 15 6 342 332 314 268 242 233 227 216 204 196 185 179 164 167 173 180 184 193 195 190 203 219 205
271 268 261 243 316 303 272 269 333 317 337 4 3 333 352 27 29 21 33 15 353 330 313 292 277 236 214 213 220 210 202 204 197 176 180 184 184 190 197 195 198 198 209 201
267 269 269 325 25 355 297 249 17 1 351 346 333 310 336 24 15 1 19 25 352 332 325 317 321 313 234 205 195 218 221 217 202 189 195 195 188 188 197 198 202 201 207 195
256 260 265 26 17 26 252 346 22 356 346 329 325 337 347 3 4 352 351 4 355 333 323 319 321 308 281 238 212 240 240 210 198 200 207 200 182 185 188 198 205 209 208 194
252 251 246 70 52 16 16 11 2 357 2 358 353 354 348 350 349 344 340 346 352 335 330 329 327 307 301 285 266 254 219 208 208 202 215 200 182 188 188 195 209 217 208 203
272 281 37 47 33 18 11 3 3 359 355 346 337 337 337 339 334 328 326 323 339 326 320 329 337 328 306 312 343 253 195 206 208 198 192 188 187 186 180 193 204 208 200 207
269 247 263 22 29 15 12 0 359 353 346 341 334 334 338 339 333 329 321 323 326 311 311 326 336 331 337 340 333 277 210 217 199 184 171 161 169 180 178 195 200 202 201 208
272 287 303 311 349 359 4 0 357 355 345 340 335 329 328 324 323 327 326 335 334 315 313 323 338 338 348 351 349 294 234 221 194 177 177 174 164 202 197 204 197 200 207 202
264 273 277 290 338 343 336 342 346 338 331 328 323 319 323 318 316 316 314 325 327 322 321 319 330 332 351 358 339 310 252 210 186 176 181 173 172 168 16 219 209 202 198 194
292 321 319 322 329 327 319 324 324 322 315 310 320 320 315 308 306 308 301 306 303 306 310 310 318 328 351 348 331 320 301 255 194 194 195 193 201 198 203 308 260 212 197 181
325 335 307 308 309 317 314 316 312 304 302 303 310 309 306 307 307 308 301 295 299 309 311 310 317 325 336 335 328 321 318 301 253 210 205 206 209 210 206 204 208 227 214 197
279 279 277 290 296 310 317 301 292 297 309 312 319 313 315 313 310 314 317 325 325 314 310 312 315 322 333 325 322 319 319 301 273 231 221 220 216 213 212 213 208 201 177 184
281 290 284 279 281 296 304 299 296 303 311 314 320 320 319 315 313 314 318 331 312 291 292 299 305 327 333 323 317 311 303 308 310 281 241 232 225 218 212 213 212 204 197 180
245 260 260 263 264 267 278 289 295 299 305 312 320 325 319 307 301 306 311 313 305 305 307 308 315 336 329 307 296 290 295 289 293 286 253 242 241 240 229 215 212 214 209 193
251 260 271 277 278 282 287 300 311 320 321 320 325 324 315 306 293 287 295 303 301 308 307 301 320 327 314 305 305 315 308 294 276 271 269 273 268 259 243 230 226 221 209 189
262 261 284 295 299 295 299 311 318 324 326 332 331 318 309 303 302 298 292 285 285 288 298 318 330 288 283 299 333 281 276 282 284 287 289 280 272 274 266 255 246 221 193 175
270 277 282 295 310 316 319 320 319 317 324 331 322 312 306 302 299 294 290 279 271 280 296 330 263 258 260 249 290 242 255 272 279 286 291 258 243 248 253 256 246 221 225 213
294 285 277 279 301 312 311 309 303 301 312 318 312 306 301 300 298 292 289 288 295 336 326 307 268 260 248 255 237 236 243 255 269 284 280 274 268 260 264 276 278 257 260 265
277 279 283 281 289 299 302 301 306 304 306 306 305 305 303 303 303 297 288 285 301 352 325 277 282 293 292 262 211 228 234 236 241 259 265 264 268 258 250 259 261 267 260 259
280 281 281 280 282 289 294 296 292 282 282 289 293 297 297 299 296 288 289 303 319 324 308 277 304 304 287 240 219 226 231 232 235 241 247 254 261 265 260 249 251 261 262 259
276 285 283 284 283 284 290 298 297 290 288 289 287 294 299 301 296 288 289 305 328 314 289 284 296 297 282 246 236 236 238 239 240 240 232 231 242 249 252 247 241 249 258 264
264 271 276 274 266 268 282 289 292 294 286 281 287 293 291 284 288 296 303 306 311 300 294 285 288 287 273 270 251 251 252 251 248 247 239 234 240 249 251 247 242 243 247 251
262 268 270 270 271 266 272 272 278 288 292 296 298 304 308 300 290 290 296 288 289 298 293 271 260 264 269 275 275 269 258 270 275 264 252 245 246 250 258 259 263 259 261 262
258 262 267 260 250 245 256 257 258 266 274 279 286 296 301 298 299 305 301 282 274 275 275 270 253 257 267 275 282 279 275 268 265 261 252 251 254 253 259 265 269 273 275 277